KG4QXL-1 Weather Reports


Display with metric or nautical units.
time (UTC)temp
F
wind
direction
speed
MPH
gust
MPH
rain 1hr
in
rain 24hr
in
rain mn
in
humidity
%
barometer
mb
20260507211553 66 221 1.0 2.0 0.00 0.00 0.00 40 1014.4
20260507210553 67 132 0.0 3.0 0.00 0.00 0.00 43 1014.3
20260507205613 68 0.0 1.0 0.00 0.00 0.00 38 1014.3
20260507204553 68 203 0.0 2.0 0.00 0.00 0.00 41 1014.3
20260507203553 70 38 0.0 1.0 0.00 0.00 0.00 39 1014.3
20260507202553 68 91 0.0 3.0 0.00 0.00 0.00 42 1014.3
20260507201553 71 243 2.0 4.0 0.00 0.00 0.00 38 1014.2
20260507200553 71 215 1.0 6.0 0.00 0.00 0.00 38 1014.3
20260507195553 71 223 1.0 3.0 0.00 0.00 0.00 38 1014.4
20260507194552 72 177 1.0 3.0 0.00 0.00 0.00 40 1014.4
20260507193554 72 330 1.0 4.0 0.00 0.00 0.00 38 1014.6
20260507192554 71 225 1.0 3.0 0.00 0.00 0.00 40 1014.8
20260507191553 70 326 0.0 2.0 0.00 0.00 0.00 39 1014.8
20260507190613 71 171 1.0 3.0 0.00 0.00 0.00 39 1015.0
20260507185613 70 201 0.0 3.0 0.00 0.00 0.00 39 1015.3
20260507184553 69 313 1.0 3.0 0.00 0.00 0.00 41 1015.5
20260507183553 67 235 2.0 4.0 0.00 0.00 0.00 43 1016.8
20260507182553 68 234 0.0 4.0 0.00 0.00 0.00 41 1015.4
20260507181553 67 254 1.0 4.0 0.00 0.00 0.00 45 1015.5
20260507180553 67 152 2.0 4.0 0.00 0.00 0.00 42 1016.0
20260507175613 66 149 1.0 3.0 0.00 0.00 0.00 43 1016.0
20260507174553 65 184 1.0 2.0 0.00 0.00 0.00 44 1016.2
20260507173613 65 275 1.0 3.0 0.00 0.00 0.00 45 1016.4
20260507172613 66 263 2.0 3.0 0.00 0.00 0.00 44 1016.7
20260507171613 66 80 1.0 4.0 0.00 0.00 0.00 43 1016.5
20260507170553 65 221 2.0 3.0 0.00 0.00 0.00 42 1017.0
20260507165553 63 211 2.0 4.0 0.00 0.00 0.00 44 1017.2
20260507164554 62 183 1.0 4.0 0.00 0.00 0.00 44 1017.6
20260507163553 63 74 1.0 3.0 0.00 0.00 0.00 43 1017.7
20260507162553 62 113 0.0 2.0 0.00 0.00 0.00 44 1017.9
20260507161554 62 202 1.0 2.0 0.00 0.00 0.00 44 1018.1
20260507160552 62 222 1.0 2.0 0.00 0.00 0.00 45 1017.0
20260507155632 61 249 2.0 6.0 0.00 0.00 0.00 47 1017.0
20260507154552 60 200 1.0 7.0 0.00 0.00 0.00 47 1017.3
20260507153553 59 203 0.0 2.0 0.00 0.00 0.00 47 1018.2
20260507152553 58 147 1.0 4.0 0.00 0.00 0.00 49 1018.9
20260507151553 58 60 0.0 3.0 0.00 0.00 0.00 50 1018.7
20260507150553 57 82 1.0 3.0 0.00 0.00 0.00 52 1019.1
20260507145553 57 237 1.0 3.0 0.00 0.00 0.00 51 1019.4
20260507144613 56 202 1.0 4.0 0.00 0.00 0.00 54 1019.6
20260507143613 55 88 0.0 3.0 0.00 0.00 0.00 57 1019.8
20260507142553 55 260 0.0 3.0 0.00 0.00 0.00 58 1019.8
20260507141553 54 84 0.0 1.0 0.00 0.00 0.00 59 1020.0
20260507140553 54 47 1.0 2.0 0.00 0.00 0.00 61 1020.1
20260507135553 54 63 0.0 2.0 0.00 0.00 0.00 63 1020.5
20260507134553 53 75 0.0 3.0 0.00 0.00 0.00 63 1020.5
20260507133553 53 0.0 1.0 0.00 0.01 0.00 66 1020.7
20260507132553 52 63 0.0 2.0 0.00 0.02 0.00 66 1021.0
20260507131553 52 0.0 2.0 0.00 0.02 0.00 67 1020.9
20260507130713 53 15 0.0 3.0 0.00 0.02 0.00 67 1020.9
20260507125613 52 88 0.0 2.0 0.00 0.02 0.00 66 1020.7
20260507124613 52 14 0.0 3.0 0.00 0.02 0.00 67 1020.8
20260507123613 52 73 0.0 2.0 0.00 0.02 0.00 69 1020.7
20260507122553 52 63 0.0 3.0 0.00 0.02 0.00 69 1020.7
20260507121553 52 224 0.0 3.0 0.00 0.02 0.00 70 1020.6
20260507120553 52 33 0.0 3.0 0.00 0.02 0.00 71 1020.7
20260507115553 52 56 1.0 3.0 0.00 0.02 0.00 70 1020.6
20260507114553 52 79 0.0 3.0 0.00 0.02 0.00 72 1020.6
20260507113553 53 0.0 2.0 0.00 0.03 0.00 74 1020.5
20260507112553 52 76 0.0 2.0 0.00 0.04 0.00 76 1020.3
20260507111613 52 0.0 2.0 0.00 0.05 0.00 77 1020.3
20260507110553 53 72 0.0 3.0 0.00 0.06 0.00 78 1020.1
20260507105553 52 77 1.0 2.0 0.00 0.07 0.00 79 1020.2
20260507104553 52 72 0.0 1.0 0.00 0.07 0.00 79 1019.9
20260507103553 52 0.0 0.0 0.00 0.07 0.00 79 1019.9
20260507102553 52 0.0 1.0 0.00 0.07 0.00 79 1019.9
20260507101553 52 0.0 0.0 0.00 0.07 0.00 78 1019.6
20260507100553 53 0.0 0.0 0.00 0.07 0.00 77 1019.9
20260507095553 53 0.0 0.0 0.00 0.07 0.00 77 1019.7
20260507094553 53 0.0 0.0 0.00 0.07 0.00 77 1019.5
20260507093553 53 0.0 0.0 0.00 0.07 0.00 76 1019.7
20260507092613 53 0.0 0.0 0.00 0.07 0.00 76 1019.6
20260507091552 53 0.0 0.0 0.00 0.07 0.00 76 1019.5
20260507090553 53 73 0.0 1.0 0.00 0.07 0.00 76 1019.4
20260507085552 53 0.0 0.0 0.00 0.07 0.00 77 1019.3
20260507084553 53 0.0 0.0 0.00 0.07 0.00 74 1019.4
20260507083553 53 0.0 0.0 0.00 0.07 0.00 74 1019.5
20260507082553 53 0.0 0.0 0.00 0.07 0.00 75 1019.6
20260507081553 54 0.0 0.0 0.00 0.07 0.00 73 1019.5
20260507080553 53 0.0 0.0 0.00 0.07 0.00 73 1019.6
20260507075633 54 0.0 0.0 0.00 0.07 0.00 74 1019.3
20260507074615 54 0.0 1.0 0.00 0.07 0.00 73 1019.2
20260507073555 54 0.0 0.0 0.00 0.07 0.00 74 1019.1
20260507072555 54 0.0 0.0 0.00 0.07 0.00 74 1019.1
20260507071555 54 0.0 1.0 0.00 0.07 0.00 74 1019.1
20260507070614 54 0.0 0.0 0.00 0.07 0.00 74 1019.2
20260507065555 54 62 0.0 1.0 0.00 0.07 0.00 76 1019.3
20260507064601 54 82 0.0 1.0 0.00 0.07 0.00 76 1019.3
20260507063555 54 68 0.0 1.0 0.00 0.07 0.00 75 1019.3
20260507062554 54 79 1.0 10.0 0.00 0.07 0.00 77 1019.4
20260507061555 54 62 0.0 2.0 0.00 0.07 0.00 79 1019.5
20260507060559 54 87 0.0 2.0 0.00 0.07 0.00 80 1019.7
20260507055615 55 73 0.0 2.0 0.00 0.07 0.00 80 1019.8
20260507054554 55 76 0.0 6.0 0.00 0.07 0.00 80 1019.7
20260507053555 55 69 0.0 2.0 0.00 0.07 0.00 80 1019.5
20260507052555 55 71 0.0 3.0 0.00 0.07 0.00 80 1019.3
20260507051555 56 89 1.0 3.0 0.00 0.07 0.00 80 1019.3
20260507050555 56 98 0.0 3.0 0.00 0.07 0.00 80 1018.9
20260507045556 57 58 0.0 6.0 0.00 0.07 0.00 79 1018.9
20260507044615 57 64 1.0 3.0 0.00 0.07 0.00 79 1019.0
20260507043556 57 128 0.0 1.0 0.00 0.07 0.00 80 1018.7
20260507042555 57 92 0.0 1.0 0.00 0.07 0.00 80 1018.0
20260507041555 57 86 0.0 2.0 0.00 0.07 0.00 79 1018.3
20260507040555 57 0.0 0.0 0.00 0.07 0.00 81 1018.7
20260507035555 57 43 0.0 3.0 0.00 0.07 0.07 81 1018.4
20260507034555 58 0.0 0.0 0.00 0.07 0.07 79 1018.6
20260507033555 58 0.0 2.0 0.00 0.07 0.07 78 1019.1
20260507032555 58 47 0.0 2.0 0.00 0.07 0.07 80 1018.6
20260507031556 59 0.0 1.0 0.00 0.07 0.07 80 1018.2
20260507030554 59 0.0 0.0 0.00 0.07 0.07 78 1017.8
20260507025555 59 97 0.0 3.0 0.00 0.07 0.07 78 1018.3
20260507024635 59 0.0 1.0 0.00 0.07 0.07 78 1018.4
20260507023555 60 49 0.0 3.0 0.00 0.07 0.07 79 1018.3
20260507022556 60 87 1.0 3.0 0.00 0.07 0.07 80 1018.1
20260507021556 61 60 0.0 3.0 0.00 0.07 0.07 81 1017.4
20260507020555 61 0.0 1.0 0.00 0.07 0.07 81 1017.3
20260507015555 61 0.0 2.0 0.00 0.07 0.07 81 1017.4
20260507014555 62 42 0.0 2.0 0.00 0.07 0.07 81 1018.0
20260507013555 62 64 0.0 2.0 0.00 0.07 0.07 81 1017.4
20260507012555 62 62 0.0 4.0 0.00 0.07 0.07 82 1017.0
20260507011555 63 86 0.0 2.0 0.00 0.07 0.07 83 1017.0
20260507010615 64 0.0 0.0 0.00 0.07 0.07 83 1016.8
20260507005555 64 0.0 0.0 0.00 0.07 0.07 82 1017.1
20260507004555 64 84 0.0 1.0 0.00 0.07 0.07 80 1017.0
20260507003555 64 0.0 0.0 0.00 0.07 0.07 80 1016.9
20260507002555 65 0.0 0.0 0.00 0.07 0.07 80 1016.9
20260507001555 65 0.0 2.0 0.00 0.07 0.07 80 1016.6
20260507000615 65 7 1.0 2.0 0.00 0.07 0.07 78 1016.5
20260506235555 66 76 1.0 3.0 0.00 0.07 0.07 78 1016.4
20260506234555 66 17 0.0 4.0 0.00 0.07 0.07 77 1016.5
20260506233554 67 60 1.0 3.0 0.00 0.07 0.07 76 1016.2
20260506232555 67 81 1.0 3.0 0.00 0.07 0.07 75 1016.3
20260506231555 68 42 1.0 3.0 0.00 0.07 0.07 75 1015.9
20260506230635 69 317 0.0 3.0 0.00 0.07 0.07 74 1015.8
20260506225555 70 0.0 0.0 0.00 0.07 0.07 74 1015.8
20260506224554 70 0.0 2.0 0.00 0.07 0.07 72 1015.6
20260506223555 70 326 0.0 2.0 0.00 0.07 0.07 75 1015.3
20260506222635 71 0.0 0.0 0.00 0.07 0.07 80 1015.2
20260506221555 72 197 0.0 1.0 0.00 0.07 0.07 72 1015.1
20260506220615 73 266 1.0 2.0 0.00 0.07 0.07 70 1015.1
20260506215555 73 212 0.0 2.0 0.00 0.07 0.07 69 1015.1
20260506214555 73 199 1.0 4.0 0.00 0.07 0.07 69 1014.8
20260506213555 73 246 1.0 2.0 0.00 0.07 0.07 68 1014.8
20260506212555 74 207 0.0 2.0 0.00 0.07 0.07 66 1014.6